�N����,����,�~����,�C��,���x,�C��,����,���ϕ���,�ő�u�ԕ���,�ő厞����,���˗�,�I�_���x,�n�����x
"17/08/01","01:00",0.0,26.3,87.5,1002.9,348.9,1.1,2.7,338.4,0.00,24.1,26.6
"17/08/01","02:00",0.0,26.4,88.7,1002.9,335.7,2.0,3.1,346.9,0.00,24.4,26.5
"17/08/01","03:00",0.0,26.0,88.3,1003.1,334.5,1.1,3.2,321.8,0.00,24.0,26.4
"17/08/01","04:00",0.0,26.1,88.1,1002.9,328.5,0.8,2.7,345.7,0.00,24.0,26.1
"17/08/01","05:00",0.0,25.9,88.3,1003.1,325.7,1.5,2.7,333.8,0.00,23.9,26.3
"17/08/01","06:00",0.0,26.0,88.9,1002.9,338.9,1.3,3.2,341.6,0.00,24.1,26.1
"17/08/01","07:00",0.0,26.7,86.6,1003.1,339.7,0.8,2.8,331.1,0.07,24.3,26.2
"17/08/01","08:00",0.0,29.3,78.2,1002.4,284.9,0.6,2.7,346.7,0.57,25.1,26.4
"17/08/01","09:00",0.0,29.7,77.3,1002.4,339.5,1.1,2.6,343.2,0.87,25.3,26.5
"17/08/01","10:00",0.0,32.3,67.3,1003.6,147.3,0.6,2.8,228.9,2.14,25.5,27.3
"17/08/01","11:00",0.0,32.2,64.4,1003.4,235.6,1.1,4.0,356.9,2.37,24.7,28.2
"17/08/01","12:00",0.0,32.3,63.8,1003.1,291.2,1.5,5.0,223.5,2.38,24.6,29.0
"17/08/01","13:00",0.0,33.0,61.4,1002.4,18.3,2.2,4.8,11.1,2.52,24.6,29.1
"17/08/01","14:00",0.0,32.9,59.8,1002.2,350.7,2.5,5.0,347.2,2.74,24.1,29.7
"17/08/01","15:00",0.0,32.4,62.1,1000.8,7.0,2.5,6.2,328.3,1.82,24.2,29.3
"17/08/01","16:00",0.0,31.3,58.8,1000.8,350.4,2.5,6.3,347.6,1.43,22.3,29.3
"17/08/01","17:00",0.0,32.1,56.6,1001.0,356.9,1.7,5.6,351.5,1.63,22.4,29.0
"17/08/01","18:00",0.0,29.7,61.6,1000.5,347.4,2.6,5.9,352.2,0.68,21.6,28.8
"17/08/01","19:00",0.0,28.1,67.7,1000.5,343.9,1.3,5.2,332.5,0.06,21.6,28.3
"17/08/01","20:00",0.0,26.9,71.9,1001.2,318.3,1.7,4.4,330.9,0.00,21.4,27.8
"17/08/01","21:00",0.0,25.8,78.3,1001.7,332.8,1.0,2.9,339.6,0.00,21.8,27.1
"17/08/01","22:00",0.0,25.8,77.1,1002.2,327.1,1.3,3.4,332.7,0.00,21.5,26.9
"17/08/01","23:00",0.0,24.5,83.9,1001.9,305.5,0.7,2.5,332.0,0.00,21.6,26.5
"17/08/01","24:00",0.0,24.3,85.8,1001.7,334.4,1.2,2.0,358.7,0.00,21.8,26.2
"17/08/02","01:00",0.0,23.9,87.1,1001.7,332.2,1.0,2.4,332.5,0.00,21.7,26.0
"17/08/02","02:00",0.0,23.5,89.0,1001.7,331.5,1.1,2.0,334.4,0.00,21.6,25.7
"17/08/02","03:00",0.0,23.9,88.7,1001.2,350.2,1.1,1.9,321.5,0.00,22.0,25.5
"17/08/02","04:00",0.0,23.5,89.5,1001.7,315.0,0.7,3.5,333.4,0.00,21.7,25.4
"17/08/02","05:00",0.0,23.0,91.8,1001.7,337.1,0.6,1.8,317.8,0.00,21.6,25.3
"17/08/02","06:00",0.0,23.9,90.6,1001.9,333.9,0.8,2.5,340.5,0.00,22.3,25.1
"17/08/02","07:00",0.0,25.3,86.6,1002.6,349.8,1.0,3.9,340.9,0.06,22.9,25.2
"17/08/02","08:00",0.0,26.9,80.2,1002.2,320.3,1.1,3.1,336.7,0.40,23.2,25.5
"17/08/02","09:00",0.0,29.9,66.9,1002.2,311.6,0.8,2.8,329.5,1.54,23.1,26.1
"17/08/02","10:00",0.0,32.3,61.4,1002.6,12.5,0.8,4.4,350.1,2.33,24.0,26.7
"17/08/02","11:00",0.0,32.9,61.6,1002.4,135.5,0.6,3.9,2.2,2.55,24.6,27.6
"17/08/02","12:00",0.0,32.2,58.6,1001.5,148.5,0.8,2.9,56.5,1.62,23.1,28.0
"17/08/02","13:00",0.0,33.0,60.7,1001.9,168.5,0.8,3.4,221.8,2.69,24.4,29.1
"17/08/02","14:00",0.0,31.9,59.3,1001.0,144.0,0.8,2.8,68.6,2.66,23.0,29.3
"17/08/02","15:00",0.0,34.8,47.0,1001.5,243.4,1.6,3.4,213.9,2.74,21.9,29.8
"17/08/02","16:00",0.0,32.9,55.0,999.3,95.9,0.7,3.9,205.6,0.57,22.7,29.3
"17/08/02","17:00",0.0,32.3,59.6,999.1,19.1,0.8,2.5,351.8,0.38,23.5,28.8
"17/08/02","18:00",0.0,30.3,64.7,998.6,122.7,1.1,3.6,195.7,0.01,22.9,28.3
"17/08/02","19:00",0.0,29.2,67.1,998.6,107.1,1.0,2.9,104.7,0.00,22.5,27.9
"17/08/02","20:00",0.0,28.0,70.5,1000.5,88.2,0.8,3.4,126.5,0.00,22.2,27.4
"17/08/02","21:00",0.0,27.1,75.1,1001.0,13.7,0.6,2.9,88.0,0.00,22.3,27.3
"17/08/02","22:00",0.0,26.8,76.3,1001.5,21.4,0.7,2.4,32.8,0.00,22.3,27.0
"17/08/02","23:00",0.0,26.6,76.2,1001.7,64.4,0.7,3.9,40.7,0.00,22.1,26.6
"17/08/02","24:00",0.0,26.4,77.2,1001.7,39.9,0.7,3.1,82.4,0.00,22.1,26.5
"17/08/03","01:00",0.0,26.3,78.2,1001.2,26.7,0.6,2.1,153.1,0.00,22.2,26.5
"17/08/03","02:00",0.0,26.0,79.1,1001.0,3.4,0.7,1.9,97.2,0.00,22.1,26.2
"17/08/03","03:00",0.0,25.9,78.3,1001.0,115.0,0.7,2.2,168.8,0.00,21.9,26.2
"17/08/03","04:00",0.0,25.8,78.5,1001.0,16.9,0.8,2.6,334.4,0.00,21.8,25.8
"17/08/03","05:00",0.0,25.2,80.5,1001.5,24.2,0.8,3.3,0.8,0.00,21.6,25.7
"17/08/03","06:00",0.0,25.1,80.6,1001.9,33.7,0.7,2.6,75.6,0.00,21.6,25.7
"17/08/03","07:00",0.0,25.4,79.0,1002.6,58.1,0.5,3.2,118.1,0.00,21.5,25.3
"17/08/03","08:00",0.0,26.2,76.3,1002.6,96.9,1.1,2.8,128.0,0.14,21.7,25.6
"17/08/03","09:00",0.0,26.8,75.4,1001.9,84.8,0.7,2.9,68.6,0.39,22.1,25.7
"17/08/03","10:00",0.0,28.1,71.0,1001.9,91.3,1.6,3.5,13.5,0.88,22.4,26.0
"17/08/03","11:00",0.0,29.0,69.1,1002.6,90.7,1.1,3.4,57.9,1.92,22.8,26.7
"17/08/03","12:00",0.0,28.6,69.6,1001.7,102.1,1.5,3.5,77.5,1.04,22.5,26.8
"17/08/03","13:00",0.0,31.4,61.6,1002.4,75.3,1.6,4.5,88.4,2.41,23.2,27.4
"17/08/03","14:00",0.0,30.9,60.9,1001.9,81.1,1.8,4.9,129.7,2.21,22.5,27.9
"17/08/03","15:00",0.0,30.4,61.8,1001.0,98.6,1.8,6.8,134.1,1.34,22.3,28.0
"17/08/03","16:00",0.0,30.3,63.9,1000.8,112.6,1.6,4.8,74.8,0.63,22.7,27.6
"17/08/03","17:00",0.0,29.8,66.9,1000.3,99.2,1.2,4.8,73.0,0.58,23.0,27.6
"17/08/03","18:00",0.0,29.3,68.5,1000.5,104.1,1.1,4.8,128.3,0.58,22.9,27.5
"17/08/03","19:00",0.0,28.1,72.4,1001.5,108.8,1.1,3.9,43.3,0.04,22.7,27.2
"17/08/03","20:00",0.0,27.5,75.1,1002.2,61.9,0.8,2.7,128.4,0.00,22.7,26.9
"17/08/03","21:00",0.0,27.4,75.9,1002.6,89.2,1.0,3.5,152.9,0.00,22.8,26.6
"17/08/03","22:00",0.0,27.3,76.6,1002.9,89.1,0.7,2.9,121.1,0.00,22.9,26.2
"17/08/03","23:00",0.0,27.1,76.8,1002.9,102.3,0.8,2.2,38.9,0.00,22.7,26.0
"17/08/03","24:00",0.0,27.1,77.4,1002.9,95.2,0.7,2.7,132.6,0.00,22.8,26.0
"17/08/04","01:00",0.0,26.9,78.2,1002.4,43.0,0.6,2.9,68.1,0.00,22.8,25.7
"17/08/04","02:00",0.0,26.9,79.4,1001.9,93.0,0.8,3.5,120.9,0.00,23.1,25.7
"17/08/04","03:00",0.0,26.8,80.0,1002.4,84.6,0.8,2.4,35.3,0.00,23.1,26.0
"17/08/04","04:00",0.0,26.8,79.3,1001.9,90.2,0.7,3.4,57.1,0.00,23.0,25.7
"17/08/04","05:00",0.0,26.8,78.1,1001.9,81.8,1.2,4.3,76.7,0.00,22.7,25.5
"17/08/04","06:00",0.0,26.7,78.9,1002.2,95.2,0.7,3.5,97.1,0.00,22.8,25.5
"17/08/04","07:00",0.0,27.2,78.3,1002.9,118.5,1.1,3.5,150.4,0.07,23.1,25.4
"17/08/04","08:00",0.0,27.6,77.4,1002.6,131.3,0.8,3.6,140.2,0.28,23.3,25.8
"17/08/04","09:00",0.0,28.0,76.5,1002.6,134.0,1.7,4.4,113.5,0.47,23.5,25.8
"17/08/04","10:00",0.0,29.7,71.4,1002.9,107.0,1.2,3.9,53.4,1.02,24.0,26.2
"17/08/04","11:00",0.0,31.9,63.8,1003.8,111.2,1.5,4.8,139.2,1.85,24.2,27.1
"17/08/04","12:00",0.0,30.9,67.6,1003.1,105.2,1.5,4.4,153.8,1.90,24.2,27.6
"17/08/04","13:00",0.0,30.8,68.2,1002.4,114.3,1.3,4.4,144.8,1.09,24.3,27.4
"17/08/04","14:00",0.0,32.2,64.6,1002.2,99.8,1.2,3.6,135.4,1.71,24.7,27.8
"17/08/04","15:00",0.0,31.2,67.0,1002.2,94.5,2.0,3.9,355.0,1.44,24.4,28.1
"17/08/04","16:00",0.0,31.4,67.0,1001.2,89.1,1.6,4.5,140.8,1.00,24.6,28.2
"17/08/04","17:00",0.0,31.4,67.6,1001.0,87.9,1.1,3.5,71.8,0.74,24.7,28.0
"17/08/04","18:00",0.0,30.7,69.5,1000.8,95.8,1.1,5.0,55.1,0.22,24.5,27.7
"17/08/04","19:00",0.0,29.8,71.8,1000.0,115.1,1.1,3.6,125.1,0.04,24.2,27.2
"17/08/04","20:00",0.0,28.9,75.2,1000.5,137.2,1.2,3.2,133.4,0.00,24.1,27.4
"17/08/04","21:00",0.0,28.3,77.7,1001.2,84.2,1.2,4.3,91.5,0.00,24.1,26.9
"17/08/04","22:00",0.0,28.2,78.3,1001.5,62.4,0.7,3.1,162.9,0.00,24.1,27.0
"17/08/04","23:00",0.0,27.9,77.8,1001.7,108.6,0.8,2.8,127.4,0.00,23.7,26.3
"17/08/04","24:00",0.0,27.7,77.5,1001.2,105.4,0.8,3.4,37.0,0.00,23.4,26.3
"17/08/05","01:00",0.0,27.5,78.0,1001.0,151.3,0.5,2.4,76.4,0.00,23.4,26.1
"17/08/05","02:00",0.0,27.3,79.7,1000.5,185.4,0.5,2.2,140.9,0.00,23.5,26.0
"17/08/05","03:00",0.0,27.2,81.0,1000.8,107.6,0.5,2.4,166.2,0.00,23.7,25.9
"17/08/05","04:00",0.0,26.8,81.8,1000.3,95.1,0.3,1.9,120.7,0.00,23.5,25.7
"17/08/05","05:00",0.0,25.3,86.9,1000.8,313.1,0.7,2.0,346.4,0.00,23.0,25.7
"17/08/05","06:00",0.0,25.1,90.2,1000.5,310.2,0.7,1.4,339.3,0.00,23.4,25.5
"17/08/05","07:00",0.0,27.9,83.2,1001.0,98.9,0.8,2.0,329.6,0.13,24.8,25.6
"17/08/05","08:00",0.0,28.3,81.3,1001.2,111.4,0.7,2.7,78.9,0.12,24.8,25.7
"17/08/05","09:00",0.0,29.2,77.3,1000.5,107.8,0.7,3.9,118.0,0.53,24.9,26.2
"17/08/05","10:00",0.0,30.8,73.3,1001.0,79.7,0.6,2.2,78.7,0.68,25.5,26.2
"17/08/05","11:00",0.0,31.5,71.0,1001.2,31.5,0.6,2.4,178.7,1.05,25.6,26.9
"17/08/05","12:00",0.0,32.9,67.1,1001.9,73.5,1.1,3.1,41.2,2.48,26.0,28.1
"17/08/05","13:00",0.0,32.4,65.5,1000.3,81.3,0.7,3.2,4.5,1.21,25.1,28.1
"17/08/05","14:00",0.0,30.5,75.4,998.6,287.2,0.7,3.9,354.8,0.12,25.7,27.9
"17/08/05","15:00",0.0,28.2,87.4,998.2,2.6,1.1,4.5,317.8,0.41,25.9,27.6
"17/08/05","16:00",0.0,30.8,79.2,997.4,332.9,1.2,3.9,338.2,1.38,26.8,27.8
"17/08/05","17:00",0.0,30.7,80.6,997.4,304.6,0.5,2.7,334.4,0.75,27.0,27.7
"17/08/05","18:00",0.0,27.2,86.1,998.9,195.1,1.6,5.0,209.0,0.12,24.7,27.4
"17/08/05","19:00",0.0,26.2,90.8,999.3,228.4,0.6,4.4,332.0,0.20,24.6,26.7
"17/08/05","20:00",0.2,26.1,91.8,999.1,283.5,0.7,1.8,226.0,0.00,24.7,26.8
"17/08/05","21:00",0.0,25.9,93.0,999.8,319.3,0.6,1.3,315.6,0.00,24.7,26.4
"17/08/05","22:00",0.0,25.7,93.5,999.8,275.7,0.3,1.2,257.4,0.00,24.6,26.4
"17/08/05","23:00",0.0,25.4,93.8,999.6,300.0,0.5,1.1,303.5,0.00,24.4,26.2
"17/08/05","24:00",0.0,25.2,94.4,999.1,338.3,0.6,1.8,348.5,0.00,24.3,26.2
"17/08/06","01:00",0.0,25.1,94.6,999.6,292.9,0.6,1.2,308.5,0.00,24.2,26.0
"17/08/06","02:00",0.0,24.7,95.0,999.3,324.7,0.3,1.2,345.4,0.00,23.9,25.9
"17/08/06","03:00",0.0,24.4,95.4,999.3,292.7,0.2,1.2,347.5,0.00,23.7,25.7
"17/08/06","04:00",0.0,24.3,95.7,999.1,311.3,0.3,0.9,314.5,0.00,23.6,25.7
"17/08/06","05:00",0.0,24.1,95.9,999.1,334.5,0.5,0.8,348.5,0.00,23.4,25.7
"17/08/06","06:00",0.0,24.4,96.2,999.6,309.0,0.2,1.2,8.9,0.00,23.8,25.2
"17/08/06","07:00",0.0,26.2,95.2,999.3,355.6,0.1,1.1,338.1,0.11,25.4,25.3
"17/08/06","08:00",0.0,29.5,82.4,998.6,53.1,0.5,1.2,213.7,0.75,26.2,25.7
"17/08/06","09:00",0.0,31.6,73.8,999.6,117.5,0.7,2.5,39.6,1.59,26.4,25.7
"17/08/06","10:00",0.0,33.0,63.1,1000.5,103.9,1.1,2.7,149.8,2.40,25.1,26.5
"17/08/06","11:00",0.0,32.0,66.0,999.3,12.2,1.1,2.9,177.1,2.09,24.9,27.1
"17/08/06","12:00",0.0,35.2,58.5,999.6,139.2,0.8,3.1,204.1,3.16,25.9,28.2
"17/08/06","13:00",0.0,34.5,53.5,998.6,245.1,1.0,3.3,185.2,2.93,23.7,29.0
"17/08/06","14:00",0.0,35.9,48.5,997.9,204.1,2.3,4.8,201.5,3.01,23.4,29.2
"17/08/06","15:00",0.0,35.5,56.1,997.4,130.1,1.5,4.3,188.0,2.85,25.4,29.7
"17/08/06","16:00",0.0,35.6,55.8,996.3,91.6,1.2,3.4,141.0,1.83,25.4,29.7
"17/08/06","17:00",0.0,28.5,78.7,994.4,226.4,4.0,8.0,230.6,0.32,24.5,29.2
"17/08/06","18:00",0.0,26.1,89.6,995.1,313.9,0.8,5.6,346.8,0.00,24.3,28.2
"17/08/06","19:00",0.0,26.4,90.2,994.8,323.7,0.7,2.4,327.3,0.03,24.7,27.8
"17/08/06","20:00",0.0,25.5,91.3,994.6,257.7,0.3,1.8,296.2,0.00,24.0,27.6
"17/08/06","21:00",0.0,25.3,92.8,996.0,312.7,0.5,1.3,343.2,0.00,24.1,27.2
"17/08/06","22:00",0.0,25.1,93.5,996.0,304.0,0.8,1.3,259.1,0.00,24.0,27.0
"17/08/06","23:00",0.0,25.0,93.3,996.0,309.1,0.6,2.0,322.3,0.00,23.9,26.7
"17/08/06","24:00",0.0,25.0,93.4,995.6,330.5,0.7,1.9,244.4,0.00,23.9,26.6
"17/08/07","01:00",0.0,25.1,93.3,994.6,257.0,0.7,1.9,346.1,0.00,24.0,26.1
"17/08/07","02:00",0.0,25.3,92.8,994.4,301.4,0.5,1.7,349.8,0.00,24.1,26.0
"17/08/07","03:00",0.0,26.4,89.2,993.0,356.3,0.6,2.1,58.9,0.00,24.5,26.0
"17/08/07","04:00",0.0,27.3,84.9,993.0,98.2,0.6,3.2,104.3,0.00,24.6,26.0
"17/08/07","05:00",0.0,27.0,85.4,992.7,90.0,0.8,2.4,142.7,0.00,24.4,26.0
"17/08/07","06:00",0.0,26.2,91.3,991.5,83.6,0.8,2.9,150.1,0.00,24.7,25.8
"17/08/07","07:00",0.0,26.5,89.6,991.1,65.3,1.1,4.0,30.1,0.02,24.7,25.9
"17/08/07","08:00",0.0,26.2,90.0,991.3,97.3,0.6,3.7,8.1,0.02,24.5,25.8
"17/08/07","09:00",0.0,26.6,89.4,990.4,64.5,1.3,3.6,78.3,0.12,24.8,25.8
"17/08/07","10:00",0.0,26.5,90.6,989.4,59.1,1.8,4.8,32.3,0.13,24.9,25.8
"17/08/07","11:00",0.0,26.7,89.6,988.7,13.0,1.8,4.9,21.0,0.34,24.9,25.9
"17/08/07","12:00",0.0,26.7,90.0,987.0,61.8,1.3,7.2,352.5,0.29,25.0,26.0
"17/08/07","13:00",0.0,26.8,89.5,985.9,47.8,1.5,5.4,51.9,0.28,25.0,26.2
"17/08/07","14:00",0.0,26.1,90.5,984.2,60.0,1.6,6.5,65.6,0.03,24.5,25.7
"17/08/07","15:00",0.0,26.6,89.2,983.0,79.2,1.3,5.5,356.5,0.12,24.7,25.8
"17/08/07","16:00",0.0,26.6,88.9,981.8,70.1,1.7,5.5,57.8,0.13,24.7,25.9
"17/08/07","17:00",0.0,26.3,90.1,979.7,53.4,1.8,5.9,12.1,0.00,24.6,25.8
"17/08/07","18:00",0.0,26.4,89.5,978.3,23.2,1.7,5.6,40.9,0.00,24.6,25.7
"17/08/07","19:00",0.0,26.5,89.4,977.1,354.9,1.7,5.6,357.9,0.00,24.7,25.6
"17/08/07","20:00",0.0,26.1,91.5,977.4,323.2,3.0,7.2,327.4,0.00,24.6,25.4
"17/08/07","21:00",0.0,25.7,92.0,978.1,289.7,1.8,7.2,335.5,0.00,24.3,25.6
"17/08/07","22:00",0.0,25.8,90.0,979.2,280.7,2.8,7.2,235.3,0.00,24.1,25.4
"17/08/07","23:00",0.0,25.4,91.0,980.9,284.9,3.1,7.9,341.9,0.00,23.9,25.3
"17/08/07","24:00",0.0,24.8,89.9,982.1,290.5,2.8,9.7,327.3,0.00,23.1,25.2
"17/08/08","01:00",0.0,24.6,90.0,983.7,281.8,2.5,9.0,350.1,0.00,22.9,25.1
"17/08/08","02:00",0.0,24.8,90.3,984.2,290.9,3.0,6.4,267.0,0.00,23.1,24.7
"17/08/08","03:00",0.0,24.7,90.3,986.1,299.0,2.6,7.0,300.5,0.00,23.0,24.6
"17/08/08","04:00",0.0,24.7,90.5,986.6,312.3,3.6,8.5,326.8,0.00,23.1,24.7
"17/08/08","05:00",0.0,25.0,86.5,988.5,293.8,2.5,9.6,334.5,0.00,22.6,24.6
"17/08/08","06:00",0.0,24.8,87.1,989.6,290.3,1.8,7.8,298.2,0.00,22.5,24.3
"17/08/08","07:00",0.0,25.1,87.3,990.1,317.7,3.1,8.5,335.7,0.00,22.9,24.4
"17/08/08","08:00",0.0,26.1,81.4,990.6,303.6,2.7,7.9,333.8,0.23,22.7,24.4
"17/08/08","09:00",0.0,27.2,77.6,990.8,301.3,1.6,6.5,338.0,0.61,23.0,24.7
"17/08/08","10:00",0.0,29.8,67.3,990.1,303.8,1.3,6.7,223.5,2.02,23.1,25.4
"17/08/08","11:00",0.0,27.9,76.1,990.1,346.4,1.3,6.3,353.1,1.35,23.3,26.1
"17/08/08","12:00",0.0,27.3,79.9,990.1,309.5,1.5,4.9,310.5,1.27,23.6,26.7
"17/08/08","13:00",0.0,27.1,85.2,990.6,280.3,1.7,7.0,336.8,1.06,24.4,26.3
"17/08/08","14:00",0.0,28.6,76.0,990.6,293.5,2.3,7.3,334.4,2.30,24.0,27.1
"17/08/08","15:00",1.0,29.2,74.4,989.9,279.0,1.6,5.4,315.5,2.01,24.2,27.6
"17/08/08","16:00",0.0,31.0,68.4,990.6,323.0,1.2,5.1,334.8,2.15,24.5,28.1
"17/08/08","17:00",0.0,30.6,66.9,989.9,320.3,2.7,6.4,338.5,1.07,23.8,27.9
"17/08/08","18:00",0.0,29.9,66.4,990.4,328.7,1.7,6.5,353.4,0.66,23.0,27.6
"17/08/08","19:00",0.0,28.0,73.6,990.6,317.4,0.3,4.8,345.3,0.01,22.9,27.3
"17/08/08","20:00",0.0,26.3,80.6,992.0,328.2,0.8,4.2,357.4,0.00,22.7,26.9
"17/08/08","21:00",0.0,25.3,85.3,993.0,318.9,1.2,2.9,328.5,0.00,22.7,26.5
"17/08/08","22:00",0.0,25.4,84.5,993.2,295.1,1.1,3.1,235.9,0.00,22.6,26.1
"17/08/08","23:00",0.0,25.9,80.8,992.5,296.3,1.0,2.9,337.0,0.00,22.4,25.7
"17/08/08","24:00",0.0,25.7,80.9,993.0,271.5,0.6,4.5,345.0,0.00,22.2,25.5
"17/08/09","01:00",0.0,24.9,85.2,992.2,352.4,1.0,2.7,355.8,0.00,22.3,25.4
"17/08/09","02:00",0.0,25.0,86.9,992.2,317.8,0.7,2.1,8.4,0.00,22.7,25.3
"17/08/09","03:00",0.0,23.5,90.2,992.5,327.2,1.3,1.9,327.7,0.00,21.8,25.1
"17/08/09","04:00",0.0,23.3,92.4,992.7,326.4,1.1,1.9,330.4,0.00,22.0,24.9
"17/08/09","05:00",0.0,23.0,93.5,993.0,317.9,0.8,1.6,321.6,0.00,21.9,24.7
"17/08/09","06:00",0.0,22.9,94.4,993.4,291.3,0.5,2.5,335.3,0.00,22.0,24.5
"17/08/09","07:00",0.0,25.1,91.2,993.4,90.3,0.2,1.3,332.6,0.06,23.6,24.6
"17/08/09","08:00",0.0,28.7,73.8,992.7,99.6,0.5,2.4,126.6,0.70,23.6,24.8
"17/08/09","09:00",0.0,31.0,65.3,994.4,119.5,0.6,2.0,0.5,1.62,23.8,25.7
"17/08/09","10:00",0.0,31.7,60.7,994.8,259.8,1.1,3.1,337.7,2.52,23.2,26.9
"17/08/09","11:00",0.0,32.6,57.8,994.4,278.0,1.3,4.0,193.0,2.55,23.2,28.0
"17/08/09","12:00",0.0,33.1,56.1,993.7,284.9,1.5,5.6,224.8,3.05,23.2,28.8
"17/08/09","13:00",0.0,33.9,51.8,993.9,260.1,1.6,4.2,234.1,3.53,22.6,30.0
"17/08/09","14:00",0.0,34.7,51.1,993.2,296.3,1.3,5.1,231.9,3.38,23.1,30.4
"17/08/09","15:00",0.0,35.6,45.1,993.4,261.8,1.2,4.5,354.0,2.88,21.9,30.4
"17/08/09","16:00",0.0,34.9,48.8,992.7,253.9,0.8,4.2,338.2,2.13,22.6,30.5
"17/08/09","17:00",0.0,32.2,60.3,991.5,234.2,1.3,3.6,230.4,0.80,23.6,30.2
"17/08/09","18:00",0.0,31.0,65.6,990.6,342.7,1.6,2.9,222.5,0.28,23.8,29.7
"17/08/09","19:00",0.0,29.8,71.9,990.1,354.8,1.0,2.6,357.5,0.14,24.2,29.2
"17/08/09","20:00",0.0,28.4,77.2,990.8,216.3,0.8,2.9,352.2,0.00,24.1,28.8
"17/08/09","21:00",0.0,27.7,79.9,991.8,282.4,0.5,2.5,337.4,0.00,24.0,28.3
"17/08/09","22:00",0.0,27.3,82.4,992.5,326.5,1.3,3.1,335.7,0.00,24.1,28.0
"17/08/09","23:00",0.0,27.1,84.3,992.0,329.1,0.6,2.4,319.4,0.00,24.3,27.6
"17/08/09","24:00",0.0,26.5,86.8,992.2,340.0,0.8,1.7,343.5,0.00,24.2,27.3
"17/08/10","01:00",0.0,26.3,86.1,992.2,319.3,0.6,1.7,264.1,0.00,23.8,27.2
"17/08/10","02:00",0.0,27.0,81.9,992.2,328.2,0.8,2.4,338.7,0.00,23.7,26.8
"17/08/10","03:00",0.0,26.5,85.1,991.8,299.0,0.6,1.3,327.9,0.00,23.8,26.9
"17/08/10","04:00",0.0,26.0,87.9,992.2,332.0,0.5,1.6,346.9,0.00,23.9,26.7
"17/08/10","05:00",0.0,26.0,89.0,992.7,312.9,0.5,1.4,321.8,0.00,24.1,26.5
"17/08/10","06:00",0.0,26.2,89.1,992.5,348.2,0.6,1.4,9.6,0.00,24.3,26.5
"17/08/10","07:00",0.0,27.0,87.9,992.7,309.4,0.6,1.7,341.2,0.05,24.9,26.5
"17/08/10","08:00",0.0,27.9,83.8,993.0,211.5,0.2,1.2,117.0,0.19,24.9,26.5
"17/08/10","09:00",0.0,30.0,77.6,993.4,159.9,1.0,2.2,226.7,0.68,25.7,26.9
"17/08/10","10:00",0.0,30.9,73.6,995.1,177.2,1.5,3.1,199.1,1.57,25.7,27.7
"17/08/10","11:00",0.0,32.3,68.7,994.8,211.5,0.8,3.6,185.9,1.68,25.8,28.2
"17/08/10","12:00",0.0,32.0,68.1,994.6,196.5,1.0,4.2,196.7,1.55,25.4,29.0
"17/08/10","13:00",0.0,34.3,59.6,994.4,208.2,1.5,4.3,223.0,2.60,25.3,30.1
"17/08/10","14:00",0.0,35.1,57.3,994.8,221.6,2.0,5.6,201.5,3.09,25.4,30.8
"17/08/10","15:00",0.0,34.0,63.2,993.7,181.6,2.6,5.4,202.4,2.20,26.0,31.0
"17/08/10","16:00",0.0,33.6,62.4,992.2,226.4,1.3,4.8,133.1,0.95,25.5,30.8
"17/08/10","17:00",0.0,33.9,60.7,992.5,215.9,1.3,4.0,218.8,0.70,25.3,30.2
"17/08/10","18:00",0.0,31.1,70.8,992.5,286.2,1.5,4.2,218.6,0.01,25.2,29.8
"17/08/10","19:00",5.2,26.3,87.7,993.2,7.5,1.8,5.9,326.3,0.00,24.1,28.8
"17/08/10","20:00",3.0,25.9,89.6,994.1,327.7,1.7,5.0,4.5,0.00,24.1,28.1
"17/08/10","21:00",0.2,25.8,91.1,994.6,320.3,0.8,3.5,337.6,0.00,24.3,27.6
"17/08/10","22:00",0.4,25.8,91.3,995.6,301.1,0.8,2.4,329.3,0.00,24.3,27.5
"17/08/10","23:00",0.6,25.3,91.7,995.6,326.9,0.6,3.4,18.7,0.00,23.9,27.2
"17/08/10","24:00",0.0,24.9,93.1,995.3,311.7,0.6,1.8,344.3,0.00,23.7,26.9
"17/08/11","01:00",0.0,25.0,93.9,995.3,329.1,0.7,1.6,31.5,0.00,24.0,26.9
"17/08/11","02:00",0.0,24.8,94.0,995.3,345.1,0.7,1.4,334.7,0.00,23.8,26.7
"17/08/11","03:00",0.0,24.4,94.2,996.0,286.3,0.7,1.4,336.5,0.00,23.4,26.5
"17/08/11","04:00",0.0,24.3,94.0,995.8,316.2,1.2,2.9,334.3,0.00,23.3,26.4
"17/08/11","05:00",0.0,23.8,94.5,996.5,293.3,0.7,2.1,337.6,0.00,22.9,26.2
"17/08/11","06:00",0.0,24.4,93.8,996.7,273.7,0.2,3.5,322.8,0.00,23.4,26.2
"17/08/11","07:00",0.0,24.9,93.8,997.2,326.3,0.6,1.4,359.3,0.02,23.9,26.1
"17/08/11","08:00",0.0,25.9,91.6,997.4,330.9,0.3,1.8,348.1,0.19,24.5,26.2
"17/08/11","09:00",0.0,26.7,87.9,997.0,322.6,0.8,1.4,327.9,0.29,24.6,26.5
"17/08/11","10:00",0.0,27.7,82.7,996.7,209.9,0.3,1.6,342.3,0.56,24.5,26.6
"17/08/11","11:00",0.0,30.2,71.6,997.9,190.4,1.0,2.1,176.4,1.68,24.5,27.5
"17/08/11","12:00",0.0,30.2,74.1,997.4,352.9,0.8,2.2,346.2,1.88,25.1,28.4
"17/08/11","13:00",5.6,29.2,85.3,994.6,283.1,0.5,1.7,351.6,0.55,26.5,28.2
"17/08/11","14:00",0.0,31.6,72.1,996.5,43.1,1.0,1.7,53.8,1.74,26.0,29.0
"17/08/11","15:00",0.0,35.0,57.7,997.2,332.9,0.8,3.3,188.4,2.76,25.4,29.6
"17/08/11","16:00",0.0,35.5,49.5,995.8,339.3,1.5,4.3,346.4,2.23,23.4,30.0
"17/08/11","17:00",0.0,35.0,48.3,996.3,230.4,0.8,4.4,345.6,1.41,22.5,30.1
"17/08/11","18:00",0.0,32.8,55.5,995.6,313.6,0.7,2.9,223.5,0.56,22.8,29.6
"17/08/11","19:00",0.0,29.2,71.9,994.6,331.2,1.0,3.1,344.2,0.05,23.6,29.4
"17/08/11","20:00",0.0,28.3,76.9,995.1,329.7,1.2,2.9,347.2,0.00,23.9,28.8
"17/08/11","21:00",0.0,27.8,79.1,996.5,341.9,0.7,2.6,327.3,0.00,23.9,28.4
"17/08/11","22:00",0.0,28.0,81.0,997.2,322.0,1.1,2.5,329.2,0.00,24.5,28.2
"17/08/11","23:00",0.0,27.7,82.6,997.2,309.3,0.8,2.7,348.4,0.00,24.5,27.9
"17/08/11","24:00",0.0,26.9,84.1,997.7,316.9,1.2,2.9,339.5,0.00,24.0,27.7
"17/08/12","01:00",0.0,26.0,86.7,997.9,319.2,0.7,2.6,331.2,0.00,23.6,27.3
"17/08/12","02:00",0.0,25.8,88.1,998.2,322.8,1.3,2.8,344.6,0.00,23.7,26.9
"17/08/12","03:00",0.0,25.8,86.9,998.4,322.0,1.2,4.8,357.8,0.00,23.5,26.8
"17/08/12","04:00",0.0,25.6,87.6,998.4,334.0,1.0,3.6,313.9,0.00,23.4,26.7
"17/08/12","05:00",0.0,25.5,88.3,998.6,349.3,1.3,2.8,335.7,0.00,23.5,26.5
"17/08/12","06:00",0.0,25.9,87.3,999.3,327.9,1.2,4.4,347.8,0.00,23.7,26.3
"17/08/12","07:00",0.0,26.6,84.0,999.6,335.0,1.5,3.6,352.0,0.07,23.7,26.3
"17/08/12","08:00",0.0,27.3,80.9,1000.0,295.7,1.5,3.3,347.2,0.31,23.8,26.5
"17/08/12","09:00",0.0,27.6,76.7,1000.3,353.0,1.7,5.4,343.8,0.62,23.2,26.8
"17/08/12","10:00",0.0,28.5,70.6,1000.8,343.0,2.3,5.9,346.0,1.67,22.7,27.0
"17/08/12","11:00",0.0,29.1,66.9,1001.5,349.7,2.5,5.4,349.7,2.45,22.4,28.0
"17/08/12","12:00",0.0,30.2,64.4,1001.2,346.2,2.8,5.9,354.2,2.58,22.8,28.5
"17/08/12","13:00",0.0,30.3,62.1,1001.2,5.1,2.1,6.4,340.5,3.04,22.3,29.4
"17/08/12","14:00",0.0,31.3,56.7,1000.5,355.3,2.6,6.8,336.5,2.26,21.7,29.7
"17/08/12","15:00",0.0,30.6,58.2,1000.3,355.3,2.7,6.5,348.3,2.24,21.5,29.4
"17/08/12","16:00",0.0,31.0,54.9,1000.3,356.0,2.6,7.9,345.5,2.07,20.9,29.7
"17/08/12","17:00",0.0,30.5,56.7,999.8,341.0,2.0,6.5,344.0,1.52,21.0,29.5
"17/08/12","18:00",0.0,29.0,61.0,999.6,351.7,1.7,6.0,332.1,0.62,20.8,29.0
"17/08/12","19:00",0.0,26.4,68.6,1000.5,342.4,2.5,7.3,346.4,0.01,20.2,28.3
"17/08/12","20:00",0.0,25.0,74.7,1001.5,340.3,1.3,4.2,340.2,0.00,20.2,27.8
"17/08/12","21:00",0.0,24.4,76.3,1002.9,331.6,2.1,4.7,332.1,0.00,20.0,27.4
"17/08/12","22:00",0.0,23.8,79.9,1002.6,312.5,0.8,4.9,332.5,0.00,20.2,26.7
"17/08/12","23:00",0.0,22.6,85.4,1002.2,329.0,0.6,4.1,328.8,0.00,20.1,26.3
"17/08/12","24:00",0.0,21.9,90.0,1002.2,322.9,1.1,2.4,313.7,0.00,20.2,26.0
"17/08/13","01:00",0.0,22.3,89.6,1002.4,344.1,0.8,2.1,318.8,0.00,20.5,25.8
"17/08/13","02:00",0.0,22.0,90.4,1002.4,303.0,0.7,2.2,325.1,0.00,20.4,25.5
"17/08/13","03:00",0.0,21.9,92.1,1002.2,326.1,1.3,1.9,330.5,0.00,20.6,25.2
"17/08/13","04:00",0.0,21.4,92.7,1002.6,342.3,0.5,2.1,341.6,0.00,20.2,25.3
"17/08/13","05:00",0.0,21.1,93.2,1003.1,333.2,1.3,2.6,331.4,0.00,20.0,25.0
"17/08/13","06:00",0.0,21.8,92.7,1003.1,320.8,2.0,3.2,333.5,0.00,20.6,24.7
"17/08/13","07:00",0.0,25.1,83.1,1003.6,352.8,1.1,3.1,329.0,0.21,22.1,24.9
"17/08/13","08:00",0.0,25.9,78.3,1002.9,303.7,0.8,2.1,230.6,0.54,21.9,25.5
"17/08/13","09:00",0.0,29.0,66.5,1002.9,277.5,0.7,2.4,355.9,1.72,22.2,25.9
"17/08/13","10:00",0.0,30.0,63.0,1002.9,349.3,1.8,7.3,322.5,2.37,22.2,26.9
"17/08/13","11:00",0.0,31.0,61.8,1002.9,331.9,1.6,4.5,346.6,3.11,22.9,27.9
"17/08/13","12:00",0.0,30.2,56.4,1002.6,48.4,1.1,4.8,342.0,2.65,20.6,29.1
"17/08/13","13:00",0.0,30.4,60.2,1001.7,222.1,1.2,3.4,227.0,1.47,21.9,29.1
"17/08/13","14:00",0.0,30.1,60.2,1001.2,351.6,1.3,4.5,348.6,1.01,21.6,29.0
"17/08/13","15:00",0.0,31.5,56.4,1001.7,351.4,1.3,3.9,343.1,1.88,21.8,29.5
"17/08/13","16:00",0.0,30.7,57.0,1001.7,349.7,1.6,4.5,344.0,1.67,21.2,29.4
"17/08/13","17:00",0.0,30.4,59.5,1000.8,359.3,1.7,5.7,335.3,1.17,21.7,29.3
"17/08/13","18:00",0.0,30.0,61.0,1001.0,351.4,1.7,4.7,326.2,0.67,21.7,29.0
"17/08/13","19:00",0.0,27.1,68.4,1001.2,342.2,2.0,5.1,323.0,0.05,20.8,28.4
"17/08/13","20:00",0.0,25.7,73.0,1001.9,348.3,1.3,5.0,340.3,0.00,20.5,27.7
"17/08/13","21:00",0.0,25.0,75.8,1002.4,339.6,1.3,4.2,351.6,0.00,20.5,27.3
"17/08/13","22:00",0.0,23.9,81.7,1002.9,323.5,1.1,2.2,31.6,0.00,20.6,26.8
"17/08/13","23:00",0.0,22.9,85.6,1002.9,303.0,0.8,1.7,259.8,0.00,20.4,26.4
"17/08/13","24:00",0.0,22.9,86.4,1002.4,331.1,1.5,2.5,332.7,0.00,20.5,25.9
"17/08/14","01:00",0.0,22.0,89.1,1002.9,314.5,1.3,2.1,318.7,0.00,20.2,25.7
"17/08/14","02:00",0.0,23.0,87.1,1002.2,326.1,2.2,4.0,347.6,0.00,20.8,25.5
"17/08/14","03:00",0.0,22.9,87.8,1002.2,339.6,1.1,3.6,332.6,0.00,20.8,25.3
"17/08/14","04:00",0.0,23.3,87.1,1002.2,325.5,1.6,2.9,331.6,0.00,21.1,25.2
"17/08/14","05:00",0.0,23.4,86.9,1002.2,330.8,1.6,4.5,341.5,0.00,21.1,25.2
"17/08/14","06:00",0.0,23.4,87.6,1002.2,328.1,1.8,3.2,318.8,0.00,21.3,25.1